Zurück zum Katalog

THORAD AGENA D DEB

AktivLEO
NORAD 5755·DEBRIS·🇺🇸 United States

Gestartet Sep 30, 1969 von Vandenberg Space Force Base

Loading…

Nächste Überflüge (nächste 24 Stunden)

TLE

AktuellSource: Space-Track

Epoche: Sep 14, 2026, 21:57 UTC

1 05755U 69082JP  26257.91512819  .00001657  00000-0  44672-3 0  9990
2 05755  69.9235  83.6046 0009337 270.7741  89.2322 14.49629625947683

Verfolge THORAD AGENA D DEB in Echtzeit mit AllMySat

Download on the App Store